Regional Weather Roundup
Issued by NWS

Home | Current Version | Previous Version | Text Only | Print | Product List | Glossary Off
Versions: 1 2 3 4 5 6 7 8 9 10 11 12 13 14 15 16 17 18 19 20 21 22 23 24 25 26 27 28 29 30 31 32 33 34 35 36 37 38 39 40 41 42 43 44 45 46 47 48 49 50

000
ASUS43 KMKX 171621
RWRWI

WISCONSIN REGIONAL WEATHER ROUNDUP
NATIONAL WEATHER SERVICE MILWAUKEE/SULLIVAN WI
1000 AM CST FRI NOV 17 2017

NOTE: "FAIR" INDICATES FEW OR NO CLOUDS BELOW 12,000 FEET WITH NO
SIGNIFICANT WEATHER AND/OR OBSTRUCTIONS TO VISIBILITY.

WIZ001-002-006>008-014>016-023>028-171700-
NORTHWEST WISCONSIN

CITY           SKY/WX    TMP DP  RH WIND       PRES   REMARKS
SUPERIOR ARPT  CLOUDY    33  32  97 CALM      29.73S FOG
ASHLAND        CLOUDY    35  28  75 S10G22    29.74F WCI  27
HAYWARD        FRZ RAIN  33  30  88 S12       29.72F FOG     WCI  24
SIREN          CLOUDY    33  32  96 S7        29.71S FOG     WCI  27
CUMBERLAND     DRIZZLE   32  30  93 SE12      29.71F WCI  23
RICE LAKE      MIX PCPN  34  31  88 SE14G21   29.73F WCI  24
CHETEK         CLOUDY    33  31  90 SE9       29.73F WCI  26
LADYSMITH      CLOUDY    34  30  86 S10       29.76F WCI  26
EAU CLAIRE     CLOUDY    36  29  75 S15       29.75F WCI  27
MENOMONIE      CLOUDY    37  31  81 SE13G18   29.72F WCI  29
NEW RICHMOND   DRIZZLE   35  33  93 S10       29.70F WCI  27
OSCEOLA        LGT RAIN  35  35 100 SE9       29.72F WCI  27
$$

WIZ003>005-009-010-017-018-171700-
NORTH CENTRAL WISCONSIN

CITY           SKY/WX    TMP DP  RH WIND       PRES   REMARKS
MANITOWISH WTR DRIZZLE   31  31 100 SE13G20   29.75F WCI  22
ARBOR VITAE    CLOUDY    34  31  90 SE14      29.77F WCI  25
WOODRUFF       CLOUDY    34  31  90 SE14      29.77F WCI  25
RHINELANDER    CLOUDY    32  29  88 SE12G20   29.81F WCI  23
EAGLE RIVER    CLOUDY    32  30  93 S8G17     29.78F WCI  25
LAND O LAKES   MIX PCPN  32  30  92 S13       29.80F WCI  23
PHILLIPS       MIX PCPN  32  31  98 S9        29.75F WCI  24
TOMAHAWK       CLOUDY    32  28  84 SE6       29.80F FOG     WCI  26
MEDFORD        LGT RAIN  32  28  85 S15G22    29.78F WCI  22
MERRILL        CLOUDY    33  29  84 SE14      29.80F WCI  24
$$

WIZ029-030-035-036-043>047-171700-
CENTRAL WISCONSIN

CITY           SKY/WX    TMP DP  RH WIND       PRES   REMARKS
WAUSAU         CLOUDY    34  29  82 SE13      29.83F WCI  25
MOSINEE        CLOUDY    34  30  86 SE14G20   29.85F WCI  24
MARSHFIELD     CLOUDY    34  27  75 SE14G24   29.80F WCI  25
STEVENS POINT  CLOUDY    33  29  84 SE12G17   29.86F WCI  24
WAUPACA        CLOUDY    38  31  77 SE12G18   29.90F WCI  30
WAUTOMA        CLOUDY    36  29  75 S15       29.90S WCI  27
WISC RAPIDS    CLOUDY    36  29  75 S10       29.85F WCI  28
CAMP DOUGLAS   CLOUDY    37  28  70 SE12      29.83F WCI  30
$$

WIZ011>013-019>022-031-037>040-048>050-171700-
NORTHEAST WISCONSIN

CITY           SKY/WX    TMP DP  RH WIND       PRES   REMARKS
ANTIGO         CLOUDY    31  30  94 S15G21    29.86F WCI  21
SHAWANO        CLOUDY    38  32  77 S8        29.92F WCI  33
OCONTO         CLOUDY    40  34  81 S10G21    29.94F WCI  33
STURGEON BAY   CLOUDY    42  36  79 S23G30    29.95S
GREEN BAY      CLOUDY    39  34  82 S17G26    29.93F WCI  30
MANITOWOC      NOT AVBL
APPLETON       CLOUDY    36  28  75 S18G25    29.91F WCI  25
CLINTONVILLE   CLOUDY    36  28  75 S12       29.91F WCI  27
OSHKOSH        CLOUDY    37  30  75 S18       29.91F WCI  27
$$

WIZ032>034-041-042-053>061-171700-
SOUTHWEST WISCONSIN

CITY           SKY/WX    TMP DP  RH WIND       PRES   REMARKS
LA CROSSE      CLOUDY    39  32  76 S17       29.80F WCI  30
SPARTA         CLOUDY    38  31  77 S7        29.82F WCI  32
VIROQUA        CLOUDY    34  33  96 S13G20    29.81R WCI  25
BOSCOBEL       CLOUDY    39  30  70 VRB3      29.85F
PRAIRIE DU CHI CLOUDY    36  31  82 SE10      29.82F WCI  28
PLATTEVILLE    CLOUDY    36  33  90 SE15      29.87F WCI  26
$$

WIZ056-057-062-063-064-067-068-171700-
SOUTH CENTRAL WISCONSIN

CITY           SKY/WX    TMP DP  RH WIND       PRES   REMARKS
REEDSBURG      CLOUDY    36  29  78 S8        29.85F WCI  29
BARABOO/DELLS  CLOUDY    36  29  76 S15G22    29.87S WCI  26
LONE ROCK      CLOUDY    38  31  76 SE14      29.87F WCI  30
MINERAL POINT  CLOUDY    36  34  93 SE16G25   29.85F WCI  26
MADISON        CLOUDY    36  29  75 S21G31    29.91F WCI  25
MIDDLETON      CLOUDY    37  31  77 S18G30    29.90F WCI  27
WATERTOWN      CLOUDY    36  32  85 S10G18    29.94F WCI  29
MONROE         CLOUDY    34  30  86 S23       29.91F WCI  22
JANESVILLE     CLOUDY    37  30  75 S16       29.96F WCI  28
$$

WIZ051-052-058>065-066-070>072-171700-
SOUTHEAST WISCONSIN

CITY           SKY/WX    TMP DP  RH WIND       PRES   REMARKS
MILWAUKEE      CLOUDY    40  32  73 S15       29.99F WCI  32
WAUKESHA       NOT AVBL
MILWAUKEE/TIMM CLOUDY    37  28  70 S12       30.00F WCI  30
RACINE         CLOUDY    38  32  79 S14       30.02F WCI  30
BURLINGTON     PTSUNNY   39  35  85 SE12      29.97F WCI  32
KENOSHA        CLOUDY    39  30  70 S15       30.00F WCI  31
FOND DU LAC    CLOUDY    37  30  75 S18G25    29.92F WCI  27
SHEBOYGAN      CLOUDY    39  35  86 S15G28    29.97F WCI  31
WEST BEND      CLOUDY    36  32  87 S10G17    29.97F WCI  28
JUNEAU         CLOUDY    35  30  83 SE17G24   29.94F WCI  25
$$

LSZ147-162-171700-
LAKE SUPERIOR

STATION/POSITION TIME  TEMP    WIND        PRES    WAVE
                       AIR SEA DIR/SP/G            HT/PER
                 (UTC) (F)     (DEG/KT/KT) (MB)    (FT/S)
DEVILS ISLAND    1600   35     210/  9/ 12 1007.9R
SAXON HARBOR     1540   37     200/  9/ 17 1006.4F
$$

LMZ867-665-643>646-171700-
LAKE MICHIGAN

STATION/POSITION TIME  TEMP    WIND        PRES    WAVE
                       AIR SEA DIR/SP/G            HT/PER
                 (UTC) (F)     (DEG/KT/KT) (MB)    (FT/S)
N MID LAKE BUOY  1550   39 49  160/ 25/ 29 1015.9F   5/ 5
NORTHPORT PIER   1547   40     150/ 17/ 27 1014.9F
KEWAUNEE LAKESHO 1600   41     180/ 22/ 27 1013.8
SHEBOYGAN LAKESH 1600   40     170/ 27/ 30 1015.1
PORT WASHINGTON  1600   40     170/ 19/ 25 1016.3
MILWAUKEE LAKESH 1600   39     180/ 12/ 14   N/A
S MID LAKE BUOY  1550   40 50  150/ 21/ 25 1017.9F   5/ 5
KENOSHA   LAKESH 1600   38     170/ 22/ 26 1015.9
$$

TC  - TEMPERATURE IN CELSIUS
VSB - VISIBILITY IN STATUTE MILES
WCI - WIND CHILL INDEX
HX  - HEAT INDEX





USA.gov is the U.S. government's official web portal to all federal, state and local government web resources and services.